Regional Weather Roundup
Issued by NWS

Home | Current Version | Previous Version | Text Only | Print | Product List | Glossary Off
Versions: 1 2 3 4 5 6 7 8 9 10 11 12 13 14 15 16 17 18 19 20 21 22 23 24 25 26 27 28 29 30 31 32 33 34 35 36 37 38 39 40 41 42 43 44 45 46 47 48 49 50

000
ASUS43 KMPX 230101
RWRMN
WEATHER ROUNDUP FOR MINNESOTA
NATIONAL WEATHER SERVICE TWIN CITIES/CHANHASSEN MN
800 PM CDT TUE APR 22 2014


NOTE: "FAIR" INDICATES FEW OR NO CLOUDS BELOW 12,000 FEET WITH NO
SIGNIFICANT WEATHER AND/OR OBSTRUCTIONS TO VISIBILITY. N/A MEANS
CURRENT SKY AND/OR WEATHER CONDITIONS ARE NOT AVAILABLE.

MNZ060>063-068>070-230200-
   Twin Cities Metro

CITY           SKY/WX    TMP DP  RH WIND       PRES   REMARKS
TWIN CITIES    PTCLDY    53  25  33 NE7       30.05S
ST PAUL        PTCLDY    53  23  31 N6        30.06R
CRYSTAL        PTCLDY    54  26  34 E6        30.04R
EDEN PRAIRIE   PTCLDY    55  25  31 CALM      30.04R
LAKEVILLE      PTCLDY    50  27  40 CALM      30.05R
SOUTH ST PAUL  PTCLDY    57  21  25 NE3       30.05S
LAKE ELMO      FAIR      50  27  40 NE7       30.06R
$$
MNZ001>005-007-008-013>017-022>024-027-028-230200-
   Northwest Minnesota

CITY           SKY/WX    TMP DP  RH WIND       PRES   REMARKS
BEMIDJI        PTCLDY    49  19  30 CALM      30.03S
HALLOCK        CLOUDY    55  36  47 E9        30.00R
ROSEAU         CLEAR     48  28  46 E10       30.03S
WARROAD        CLEAR     43  25  49 E9        30.05S
THIEF RVR FALL CLEAR     54  28  37 E6        30.02S
CROOKSTON      CLEAR     55  34  44 E9        30.00F
FOSSTON        CLEAR     52  25  35 E12       30.01F
DETROIT LAKES  PTCLDY    54  32  43 S3        30.01S
MOORHEAD       PTCLDY    57  28  33 SE7       29.99S
PARK RAPIDS    CLEAR     53  26  35 E8        30.02S
$$
MNZ006-009>011-018-025>026-230200-
   North Central Minnesota

CITY           SKY/WX    TMP DP  RH WIND       PRES   REMARKS
FLAG ISLAND    CLEAR     37  18  44 SE3       30.04F
INTL FALLS     CLEAR     47  19  33 E3        30.05F
WASKISH        CLEAR     50  25  37 NE3       30.03S
BIG FORK       CLEAR     50  19  29 NE5       30.04F
LONGVILLE      CLEAR     48  27  43 CALM      30.04R
GRAND RAPIDS   CLEAR     52  18  25 CALM      30.05R
CRANE LAKE     CLEAR     39  16  38 CALM      30.08S
ORR            CLEAR     45  18  33 CALM      30.04S
COOK           CLEAR     48  21  34 CALM      30.06S
$$
MNZ012-019>021-037-230200-
   Northeast Minnesota

CITY           SKY/WX    TMP DP  RH WIND       PRES   REMARKS
DULUTH         CLEAR     48  17  29 NE5       30.04S
ELY            CLEAR     46  18  31 CALM      30.06R
HIBBING        CLEAR     50  17  27 NE3       30.04S
EVELETH        CLEAR     45  19  36 NE3       30.06S
DULUTH HARBOR  CLEAR     46  19  34 CALM      30.06S
TWO HARBORS    CLEAR     43  21  42 CALM      30.04S
SILVER BAY     CLEAR     39  27  60 CALM      30.05R
GRAND MARAIS     N/A     35  29  78 CALM      30.09S
G MARAIS ARPRT CLEAR     36  21  55 CALM      30.05S
$$
MNZ029>031-032-039>041-046>048-054>057-064-230200-
   West Central Minnesota

CITY           SKY/WX    TMP DP  RH WIND       PRES   REMARKS
FERGUS FALLS   PTCLDY    57  25  28 E6        29.96F
WHEATON        PTCLDY    57  36  44 E13       29.99S
MORRIS         PTCLDY    55  32  41 SE8       29.99S
ALEXANDRIA     PTCLDY    55  31  39 SE5       30.02F
ELBOW LAKE     FAIR      56  32  39 SE7       29.99F
WADENA         PTCLDY    54  28  37 E5        30.01S
GLENWOOD       CLEAR     54  36  50 SE6       30.02F
APPLETON       PTCLDY    57  36  44 E10       29.98F
BENSON         CLEAR     55  34  44 SE7       30.00F
ORTONVILLE     MOCLDY    57  30  35 E10       29.96F
MADISON        CLOUDY    61  37  41 E13       29.97S
WILLMAR        FAIR      54  36  50 SE7       30.04S
$$
MNZ033>034-036-042>043-049>051-058-059-230200-
   Central Minnesota

CITY           SKY/WX    TMP DP  RH WIND       PRES   REMARKS
ST CLOUD       PTCLDY    54  27  35 E5        30.04S
SAUK CENTRE    FAIR      54  32  43 SE5       30.03S
PAYNESVILLE    CLEAR     54  31  40 CALM      30.04S
AITKIN         CLEAR     52  12  20 CALM      30.03S
PINE RIVER     CLEAR     50  28  43 CALM      30.07S
BRAINERD       PTCLDY    56  23  27 CALM      30.04S
STAPLES        PTCLDY    52  25  35 E6        30.03S
LONG PRAIRIE   FAIR      54  28  37 E3        30.03S
LITTLE FALLS   PTCLDY    52  19  28 CALM      30.04S
LITCHFIELD     CLEAR     52  36  54 SE5       30.04F
BUFFALO        PTCLDY    53  27  35 E5        30.06R
MAPLE LAKE     PTCLDY    54  32  43 E3        30.05S
$$
MNZ037-044-045-052-053-230200-
   East Central Minnesota

CITY           SKY/WX    TMP DP  RH WIND       PRES   REMARKS
PRINCETON      PTCLDY    54  27  35 CALM      30.05S
MORA           CLEAR     48  21  34 E3        30.07R
CAMBRIDGE      PTCLDY    55  32  41 CALM      30.04R
RUSH CITY      PTCLDY    49  23  36 CALM      30.06R
MOOSE LAKE     CLEAR     50  23  34 CALM      30.03S
HINCKLEY       FAIR      50  23  34 CALM      30.05S
CLOQUET        CLEAR     50  16  25 NE3       30.04S
MCGREGOR       CLEAR     52  23  32 CALM      30.04S
$$
MNZ071>073-080-081-089-090-097-098-230200-
   Southwest Minnesota

CITY           SKY/WX    TMP DP  RH WIND       PRES   REMARKS
MONTEVIDEO     PTCLDY    55  37  50 SE12      30.00F
GRANITE FALLS  MOCLDY    57  34  43 E12       30.01F
CANBY          CLOUDY    59  36  41 E13       29.97F
MARSHALL       CLOUDY    61  30  31 SE13      29.97F
REDWOOD FALLS  MOCLDY    57  32  38 E13       30.01F
OLIVIA         PTCLDY    54  34  47 E7        30.02F
PIPESTONE      CLOUDY    61  30  31 S7        29.96S
WINDOM         CLOUDY    59  30  33 E7        30.01S
WORTHINGTON    CLOUDY    59  28  31 E10       30.01F
JACKSON        CLOUDY    59  28  31 E7        30.01S
TRACY          CLOUDY    60  32  35 E10       29.99F
SLAYTON        CLOUDY    59  29  32 E8        29.99F
$$
MNZ065>067-074>077-082>085-091>093-230200-
   South Central Minnesota

CITY           SKY/WX    TMP DP  RH WIND       PRES   REMARKS
MANKATO        CLEAR     55  28  35 NE6       30.05S
NEW ULM        PTCLDY    55  34  44 E6        30.03S
ST JAMES       PTCLDY    55  36  47 E8        30.03S
FAIRMONT       PTCLDY    55  32  41 E7        30.04R
GLENCOE        CLEAR     55  27  34 CALM      30.04S
FARIBAULT      CLEAR     55  23  28 NE6       30.05R
OWATONNA       CLEAR     52  28  40 NE5       30.05R
WASECA         CLEAR     50  28  43 N3        30.06S
ALBERT LEA     CLEAR     54  30  40 CALM      30.05R
$$
MNZ078>079-086>088-094>096-230200-
   Southeast Minnesota

CITY           SKY/WX    TMP DP  RH WIND       PRES   REMARKS
ROCHESTER      PTCLDY    49  27  42 NE8       30.05S
RED WING       CLEAR     54  21  28 CALM      30.05R
STANTON        PTCLDY    51  30  45 NE5       30.04R
DODGE CENTER   PTCLDY    54  28  37 NE5       30.05R
WINONA         PTCLDY    54  27  35 NE3       30.05R
AUSTIN         CLEAR     52  30  43 CALM      30.04R
PRESTON        PTCLDY    50  30  45 N6        30.04S
$$
ABBREVIATIONS USED IN REMARKS
   TC - TEMPERATURES IN CELSIUS
  WCI - WIND CHILL INDEX
   HX - HEAT INDEX
  VSB - VISIBILITY
$$



USA.gov is the U.S. government's official web portal to all federal, state and local government web resources and services.